TimeCDT,TemperatureF,Dew PointF,Humidity,Sea Level PressureIn,VisibilityMPH,Wind Direction,Wind SpeedMPH,Gust SpeedMPH,PrecipitationIn,Events,Conditions,WindDirDegrees,DateUTC
12:54 AM,53.1,48.9,86,29.98,10.0,NNE,5.8,-,N/A,,Mostly Cloudy,30,2013-10-04 05:54:00
1:03 AM,53.6,50.0,88,29.97,10.0,North,6.9,-,N/A,,Overcast,10,2013-10-04 06:03:00
1:14 AM,53.6,48.2,82,29.97,10.0,NNE,6.9,-,N/A,,Overcast,30,2013-10-04 06:14:00
1:54 AM,53.1,48.9,86,29.99,10.0,NNE,4.6,-,N/A,,Overcast,20,2013-10-04 06:54:00
2:54 AM,53.1,48.9,86,30.00,10.0,North,6.9,-,N/A,,Overcast,10,2013-10-04 07:54:00
3:54 AM,53.1,48.9,86,30.00,10.0,North,4.6,-,0.00,,Overcast,10,2013-10-04 08:54:00
4:05 AM,53.6,48.2,82,30.00,10.0,Variable,4.6,-,N/A,,Overcast,0,2013-10-04 09:05:00
4:54 AM,53.1,48.9,86,30.01,10.0,North,5.8,-,N/A,,Overcast,360,2013-10-04 09:54:00
5:12 AM,53.6,48.2,82,30.00,10.0,North,5.8,-,N/A,,Overcast,360,2013-10-04 10:12:00
5:54 AM,54.0,50.0,86,30.04,10.0,North,4.6,-,N/A,,Overcast,10,2013-10-04 10:54:00
6:09 AM,53.6,50.0,88,30.03,10.0,North,6.9,-,N/A,,Overcast,360,2013-10-04 11:09:00
6:45 AM,53.6,50.0,88,30.02,10.0,NNE,4.6,-,N/A,,Overcast,20,2013-10-04 11:45:00
6:54 AM,54.0,50.0,86,30.04,10.0,Variable,4.6,-,N/A,,Overcast,0,2013-10-04 11:54:00
7:46 AM,53.6,50.0,88,30.03,10.0,NNE,4.6,-,N/A,,Overcast,30,2013-10-04 12:46:00
7:54 AM,55.0,50.0,83,30.04,10.0,NNE,3.5,-,N/A,,Overcast,20,2013-10-04 12:54:00
8:02 AM,55.4,50.0,82,30.04,10.0,North,5.8,-,N/A,,Overcast,10,2013-10-04 13:02:00
8:54 AM,55.0,51.1,86,30.06,10.0,NE,5.8,-,N/A,,Overcast,50,2013-10-04 13:54:00
9:54 AM,55.9,51.1,84,30.07,10.0,NNE,6.9,-,N/A,,Overcast,20,2013-10-04 14:54:00
10:50 AM,57.2,51.8,82,30.06,10.0,NE,9.2,-,N/A,,Overcast,40,2013-10-04 15:50:00
10:54 AM,57.0,51.1,81,30.07,10.0,Variable,5.8,-,N/A,,Overcast,0,2013-10-04 15:54:00
11:54 AM,57.9,51.1,78,30.08,10.0,NE,6.9,-,N/A,,Overcast,50,2013-10-04 16:54:00
12:54 PM,57.9,51.1,78,30.09,10.0,NE,6.9,-,N/A,,Overcast,40,2013-10-04 17:54:00
1:54 PM,57.9,50.0,75,30.08,10.0,NE,11.5,17.3,N/A,,Overcast,40,2013-10-04 18:54:00
2:54 PM,59.0,50.0,72,30.08,10.0,NNE,9.2,-,N/A,,Overcast,30,2013-10-04 19:54:00
3:54 PM,59.0,51.1,75,30.09,10.0,Calm,Calm,-,N/A,,Overcast,0,2013-10-04 20:54:00
4:11 PM,57.2,51.8,82,30.07,2.5,Variable,4.6,-,0.00,Rain,Light Rain,0,2013-10-04 21:11:00
4:20 PM,57.2,53.6,88,30.07,4.0,East,3.5,-,0.00,Rain,Light Rain,90,2013-10-04 21:20:00
4:54 PM,57.0,52.0,83,30.09,10.0,Variable,3.5,-,0.00,,Overcast,0,2013-10-04 21:54:00
5:54 PM,57.0,52.0,83,30.10,10.0,NNE,5.8,-,N/A,,Overcast,20,2013-10-04 22:54:00
6:54 PM,55.9,51.1,84,30.10,10.0,NE,5.8,-,N/A,,Overcast,40,2013-10-04 23:54:00
7:54 PM,55.0,51.1,86,30.09,10.0,NNE,5.8,-,N/A,,Overcast,30,2013-10-05 00:54:00
8:54 PM,55.0,50.0,83,30.12,10.0,NE,3.5,-,0.00,,Overcast,40,2013-10-05 01:54:00
9:54 PM,55.0,48.9,80,30.11,10.0,NE,5.8,-,N/A,,Overcast,40,2013-10-05 02:54:00
10:54 PM,55.0,48.9,80,30.12,10.0,NE,3.5,-,N/A,,Overcast,40,2013-10-05 03:54:00
11:54 PM,55.0,48.9,80,30.11,10.0,Variable,5.8,-,N/A,,Overcast,0,2013-10-05 04:54:00